GW2632 Weather Reports


Display with metric or nautical units.
time (UTC)temp
F
wind
direction
speed
MPH
gust
MPH
rain 1hr
in
rain 24hr
in
rain mn
in
humidity
%
barometer
mb
20260505224508 79 103 2.0 7.0 0.00 0.00 0.00 50 1014.8
20260505224005 80 72 2.0 2.0 0.00 0.00 0.00 50 1014.9
20260505223502 80 35 2.0 4.0 0.00 0.00 0.00 50 1015.0
20260505222958 80 116 2.0 4.0 0.00 0.00 0.00 51 1015.0
20260505222454 80 29 3.0 4.0 0.00 0.00 0.00 50 1014.8
20260505221950 80 130 4.0 6.0 0.00 0.00 0.00 50 1015.0
20260505221448 80 87 3.0 7.0 0.00 0.00 0.00 49 1015.1
20260505220945 81 15 2.0 6.0 0.00 0.00 0.00 49 1014.9
20260505220442 81 4 5.0 7.0 0.00 0.00 0.00 49 1014.9
20260505215939 80 122 4.0 8.0 0.00 0.00 0.00 50 1015.1
20260505215437 80 50 5.0 7.0 0.00 0.00 0.00 50 1014.9
20260505214935 81 78 3.0 6.0 0.00 0.00 0.00 49 1015.0
20260505214432 81 143 4.0 6.0 0.00 0.00 0.00 49 1015.1
20260505213929 81 74 3.0 4.0 0.00 0.00 0.00 49 1014.9
20260505213427 81 125 4.0 6.0 0.00 0.00 0.00 51 1015.0
20260505212923 81 123 1.0 4.0 0.00 0.00 0.00 50 1014.8
20260505212420 81 132 3.0 9.0 0.00 0.00 0.00 50 1015.0
20260505211916 81 123 2.0 15.0 0.00 0.00 0.00 51 1015.0
20260505211414 81 144 3.0 7.0 0.00 0.00 0.00 51 1014.8
20260505210910 81 32 5.0 7.0 0.00 0.00 0.00 50 1014.7
20260505210408 82 120 7.0 9.0 0.00 0.00 0.00 49 1014.7
20260505205904 82 352 1.0 7.0 0.00 0.00 0.00 50 1014.7
20260505205403 82 71 6.0 8.0 0.00 0.00 0.00 48 1015.1
20260505204859 83 346 2.0 6.0 0.00 0.00 0.00 49 1014.6
20260505204357 84 161 4.0 7.0 0.00 0.00 0.00 47 1014.6
20260505203854 85 134 5.0 7.0 0.00 0.00 0.00 48 1014.7
20260505203350 85 348 0.0 4.0 0.00 0.00 0.00 46 1014.5
20260505202847 84 37 2.0 7.0 0.00 0.00 0.00 46 1014.7
20260505202343 83 1 1.0 4.0 0.00 0.00 0.00 48 1014.8
20260505201840 82 6 3.0 8.0 0.00 0.00 0.00 48 1014.9
20260505201337 82 153 4.0 7.0 0.00 0.00 0.00 48 1015.1
20260505200836 84 116 5.0 8.0 0.00 0.00 0.00 46 1014.9
20260505200332 84 151 4.0 7.0 0.00 0.00 0.00 49 1015.0
20260505195828 84 207 2.0 8.0 0.00 0.00 0.00 47 1014.9
20260505195325 84 356 4.0 7.0 0.00 0.00 0.00 47 1015.2
20260505194822 85 135 4.0 8.0 0.00 0.00 0.00 47 1014.9
20260505194319 86 136 3.0 6.0 0.00 0.00 0.00 46 1015.2
20260505193814 85 10 2.0 3.0 0.00 0.00 0.00 46 1015.0
20260505193312 85 91 3.0 4.0 0.00 0.00 0.00 46 1015.0
20260505192810 84 353 1.0 4.0 0.00 0.00 0.00 48 1015.1
20260505192310 83 331 0.0 2.0 0.00 0.00 0.00 49 1015.3
20260505191806 82 349 2.0 2.0 0.00 0.00 0.00 49 1015.2
20260505191304 82 359 0.0 6.0 0.00 0.00 0.00 49 1015.3
20260505190800 82 350 0.0 3.0 0.00 0.00 0.00 50 1015.4
20260505190255 82 89 2.0 4.0 0.00 0.00 0.00 50 1015.5
20260505185752 82 137 1.0 3.0 0.00 0.00 0.00 50 1015.6
20260505185248 82 145 3.0 7.0 0.00 0.00 0.00 51 1015.7
20260505184744 82 305 1.0 4.0 0.00 0.00 0.00 51 1015.6
20260505184242 82 40 2.0 3.0 0.00 0.00 0.00 51 1015.7
20260505183738 82 7 1.0 3.0 0.00 0.00 0.00 50 1015.8
20260505183236 82 128 2.0 6.0 0.00 0.00 0.00 48 1015.7
20260505182732 82 158 5.0 10.0 0.00 0.00 0.00 49 1015.8
20260505182229 83 17 2.0 7.0 0.00 0.00 0.00 47 1015.6
20260505181725 84 144 2.0 2.0 0.00 0.00 0.00 46 1015.9
20260505181223 86 150 4.0 7.0 0.00 0.00 0.00 45 1015.9
20260505180719 86 359 1.0 3.0 0.00 0.00 0.00 44 1015.9
20260505180216 85 270 3.0 4.0 0.00 0.00 0.00 44 1016.2
20260505175712 84 300 2.0 6.0 0.00 0.00 0.00 47 1016.1
20260505175209 84 107 2.0 7.0 0.00 0.00 0.00 46 1016.3
20260505174705 84 23 1.0 3.0 0.00 0.00 0.00 46 1016.2
20260505174202 85 124 3.0 4.0 0.00 0.00 0.00 46 1016.2
20260505173658 84 105 1.0 3.0 0.00 0.00 0.00 47 1016.3
20260505173155 84 348 1.0 3.0 0.00 0.00 0.00 45 1016.2
20260505172653 83 87 4.0 6.0 0.00 0.00 0.00 48 1016.2
20260505172149 82 152 3.0 9.0 0.00 0.00 0.00 48 1016.3
20260505171649 83 104 1.0 2.0 0.00 0.00 0.00 46 1016.4
20260505171146 83 348 0.0 1.0 0.00 0.00 0.00 45 1016.3
20260505170644 84 36 3.0 4.0 0.00 0.00 0.00 43 1016.4
20260505170140 84 35 2.0 4.0 0.00 0.00 0.00 44 1016.4
20260505165640 84 329 1.0 7.0 0.00 0.00 0.00 44 1016.5
20260505165137 85 313 2.0 2.0 0.00 0.00 0.00 43 1016.4
20260505164632 84 97 3.0 6.0 0.00 0.00 0.00 46 1016.6
20260505164130 84 111 2.0 3.0 0.00 0.00 0.00 45 1016.5
20260505163628 84 133 2.0 6.0 0.00 0.00 0.00 44 1016.4
20260505163125 84 16 2.0 6.0 0.00 0.00 0.00 43 1016.6
20260505162623 84 350 1.0 6.0 0.00 0.00 0.00 44 1016.6
20260505162120 85 34 2.0 3.0 0.00 0.00 0.00 45 1016.5
20260505161617 84 338 3.0 4.0 0.00 0.00 0.00 47 1016.5
20260505161114 84 125 1.0 6.0 0.00 0.00 0.00 48 1016.7
20260505160612 83 41 2.0 3.0 0.00 0.00 0.00 46 1016.8
20260505160109 83 36 2.0 3.0 0.00 0.00 0.00 47 1016.4
20260505153049 82 57 2.0 4.0 0.00 0.00 0.00 48 1016.8
20260505152545 82 130 4.0 7.0 0.00 0.00 0.00 50 1016.7
20260505152041 82 16 1.0 2.0 0.00 0.00 0.00 49 1016.6
20260505151536 83 345 2.0 6.0 0.00 0.00 0.00 51 1016.7
20260505151034 81 24 1.0 3.0 0.00 0.00 0.00 50 1016.8
20260505150530 81 95 6.0 10.0 0.00 0.00 0.00 53 1016.5
20260505140455 77 66 3.0 7.0 0.00 0.00 0.00 65 1016.4
20260505124909 74 140 2.0 6.0 0.00 0.00 0.00 75 1016.3
20260505124406 73 48 2.0 4.0 0.00 0.00 0.00 75 1016.2
20260505123902 73 105 2.0 4.0 0.00 0.00 0.00 76 1016.3
20260505123359 72 52 2.0 2.0 0.00 0.00 0.00 77 1016.5
20260505122854 71 30 1.0 1.0 0.00 0.00 0.00 79 1016.4
20260505122352 71 51 1.0 4.0 0.00 0.00 0.00 80 1016.5
20260505121849 71 51 2.0 3.0 0.00 0.00 0.00 80 1016.1
20260505121346 70 35 1.0 2.0 0.00 0.00 0.00 81 1016.2
20260505120842 69 24 0.0 1.0 0.00 0.00 0.00 84 1015.9
20260505120338 67 33 1.0 2.0 0.00 0.00 0.00 90 1016.1
20260505115837 66 12 1.0 1.0 0.00 0.00 0.00 92 1015.8
20260505115334 65 355 0.0 0.0 0.00 0.00 0.00 93 1016.1
20260505114832 64 353 0.0 0.0 0.00 0.00 0.00 93 1016.2
20260505114328 64 352 0.0 0.0 0.00 0.00 0.00 93 1016.1
20260505113825 64 352 0.0 0.0 0.00 0.00 0.00 93 1016.0
20260505113321 63 353 0.0 0.0 0.00 0.00 0.00 93 1015.8
20260505112817 63 353 0.0 0.0 0.00 0.00 0.00 93 1015.9
20260505112314 63 353 0.0 0.0 0.00 0.00 0.00 93 1015.6
20260505111810 62 353 0.0 0.0 0.00 0.00 0.00 93 1015.5
20260505111305 62 353 0.0 0.0 0.00 0.00 0.00 93 1015.5
20260505110801 62 0 0.0 0.0 0.00 0.00 0.00 93 1015.4
20260505110300 62 0 0.0 0.0 0.00 0.00 0.00 93 1015.3
20260505101733 62 0 0.0 0.0 0.00 0.00 0.00 91 1015.3
20260505101229 62 0 0.0 0.0 0.00 0.00 0.00 91 1015.2
20260505100726 63 0 0.0 0.0 0.00 0.00 0.00 91 1015.3
20260505100223 63 0 0.0 0.0 0.00 0.00 0.00 90 1015.1
20260505095723 63 0 0.0 0.0 0.00 0.00 0.00 90 1015.0
20260505095222 63 0 0.0 0.0 0.00 0.00 0.00 90 1015.0
20260505094717 63 0 0.0 0.0 0.00 0.00 0.00 90 1015.1
20260505094214 63 0 0.0 0.0 0.00 0.00 0.00 90 1014.9
20260505093710 62 0 0.0 0.0 0.00 0.00 0.00 90 1014.9
20260505093208 62 0 0.0 0.0 0.00 0.00 0.00 90 1014.9
20260505092704 62 0 0.0 0.0 0.00 0.00 0.00 90 1014.8
20260505092203 62 0 0.0 0.0 0.00 0.00 0.00 90 1015.0
20260505091700 62 0 0.0 0.0 0.00 0.00 0.00 90 1014.9
20260505091158 62 0 0.0 0.0 0.00 0.00 0.00 90 1014.9
20260505090655 62 0 0.0 0.0 0.00 0.00 0.00 90 1014.7
20260505090153 62 0 0.0 0.0 0.00 0.00 0.00 90 1014.5
20260505085650 62 0 0.0 0.0 0.00 0.00 0.00 90 1014.8
20260505085148 62 0 0.0 0.0 0.00 0.00 0.00 90 1014.9
20260505084645 62 0 0.0 0.0 0.00 0.00 0.00 90 1014.6
20260505084144 62 0 0.0 0.0 0.00 0.00 0.00 90 1014.8
20260505083641 62 0 0.0 0.0 0.00 0.00 0.00 89 1014.6
20260505083137 62 0 0.0 0.0 0.00 0.00 0.00 89 1014.8
20260505082633 62 0 0.0 0.0 0.00 0.00 0.00 89 1014.6
20260505082131 62 0 0.0 0.0 0.00 0.00 0.00 89 1014.8
20260505081626 62 0 0.0 0.0 0.00 0.00 0.00 89 1014.6
20260505081125 62 0 0.0 0.0 0.00 0.00 0.00 89 1014.5
20260505080620 62 0 0.0 0.0 0.00 0.00 0.00 89 1014.7
20260505080117 62 0 0.0 0.0 0.00 0.00 0.00 89 1014.8
20260505075613 62 0 0.0 0.0 0.00 0.00 0.00 89 1014.5
20260505075110 62 0 0.0 0.0 0.00 0.00 0.00 89 1014.8
20260505074607 62 0 0.0 0.0 0.00 0.00 0.00 89 1014.6
20260505074104 62 0 0.0 0.0 0.00 0.00 0.00 88 1014.8
20260505073601 62 0 0.0 0.0 0.00 0.00 0.00 88 1014.8
20260505073100 63 0 0.0 0.0 0.00 0.00 0.00 87 1015.0
20260505072555 63 0 0.0 0.0 0.00 0.00 0.00 87 1014.9
20260505072052 63 0 0.0 0.0 0.00 0.00 0.00 87 1014.6
20260505071547 63 0 0.0 0.0 0.00 0.00 0.00 87 1014.7
20260505071046 63 3 0.0 0.0 0.00 0.00 0.00 87 1014.7
20260505070543 63 4 0.0 0.0 0.00 0.00 0.00 86 1014.8
20260505070038 63 4 0.0 0.0 0.00 0.00 0.00 86 1014.9
20260505065534 63 4 0.0 0.0 0.00 0.00 0.00 86 1015.0
20260505065031 64 4 0.0 0.0 0.00 0.00 0.00 85 1015.2
20260505064528 64 4 0.0 0.0 0.00 0.00 0.00 84 1015.2
20260505064027 64 4 0.0 0.0 0.00 0.00 0.00 84 1015.2
20260505063524 64 4 0.0 0.0 0.00 0.00 0.00 84 1015.2
20260505063019 64 4 0.0 0.0 0.00 0.00 0.00 83 1015.3
20260505062516 65 4 0.0 0.0 0.00 0.00 0.00 83 1015.2
20260505062013 65 4 0.0 0.0 0.00 0.00 0.00 82 1015.3
20260505061511 65 4 0.0 0.0 0.00 0.00 0.00 82 1015.4
20260505061008 65 4 0.0 0.0 0.00 0.00 0.00 82 1015.0
20260505060506 65 4 0.0 0.0 0.00 0.00 0.00 82 1015.0
20260505060002 65 4 0.0 0.0 0.00 0.00 0.00 82 1015.4
20260505055458 65 4 0.0 0.0 0.00 0.00 0.00 81 1015.6
20260505054955 65 4 0.0 0.0 0.00 0.00 0.00 81 1015.4
20260505054452 66 4 0.0 0.0 0.00 0.00 0.00 80 1015.5
20260505053950 66 4 0.0 0.0 0.00 0.00 0.00 80 1015.7
20260505053447 66 4 0.0 0.0 0.00 0.00 0.00 80 1015.6
20260505052944 66 4 0.0 0.0 0.00 0.00 0.00 80 1015.8
20260505052441 66 4 0.0 0.0 0.00 0.00 0.00 80 1015.7
20260505051938 66 4 0.0 0.0 0.00 0.00 0.00 79 1016.0
20260505051434 66 4 0.0 0.0 0.00 0.00 0.00 79 1015.8
20260505050933 66 4 0.0 0.0 0.00 0.00 0.00 79 1016.1
20260505050431 66 4 0.0 0.0 0.00 0.00 0.00 78 1016.1
20260505041358 68 32 1.0 1.0 0.00 0.00 0.00 75 1016.0
20260505040855 68 10 0.0 0.0 0.00 0.00 0.00 74 1016.1
20260505040353 68 15 0.0 1.0 0.00 0.00 0.00 74 1016.2
20260505035849 68 23 1.0 2.0 0.00 0.00 0.00 74 1016.2
20260505035345 68 33 1.0 2.0 0.00 0.00 0.00 74 1016.1
20260505034843 68 14 0.0 2.0 0.00 0.00 0.00 74 1016.3
20260505034339 68 347 0.0 1.0 0.00 0.00 0.00 74 1016.1
20260505033836 68 6 1.0 2.0 0.00 0.00 0.00 74 1016.4
20260505033333 68 16 0.0 1.0 0.00 0.00 0.00 74 1016.5
20260505032832 68 5 0.0 1.0 0.00 0.00 0.00 74 1016.5
20260505032328 68 9 0.0 2.0 0.00 0.00 0.00 73 1016.5
20260505031825 68 2 1.0 2.0 0.00 0.00 0.00 73 1016.8
20260505031321 68 2 1.0 1.0 0.00 0.00 0.00 73 1016.5
20260505030819 69 14 2.0 2.0 0.00 0.00 0.00 73 1016.6
20260505030315 69 359 0.0 2.0 0.00 0.00 0.00 72 1016.8
20260505025810 69 352 0.0 1.0 0.00 0.00 0.00 72 1016.6
20260505025308 69 358 0.0 1.0 0.00 0.00 0.00 72 1016.5
20260505024806 69 141 1.0 2.0 0.00 0.00 0.00 72 1016.4
20260505024304 69 359 0.0 1.0 0.00 0.00 0.00 72 1016.6
20260505023801 69 358 0.0 3.0 0.00 0.00 0.00 72 1016.7
20260505023257 69 58 1.0 2.0 0.00 0.00 0.00 72 1016.7
20260505022755 69 356 0.0 1.0 0.00 0.00 0.00 71 1016.7
20260505022252 69 356 0.0 1.0 0.00 0.00 0.00 71 1016.5
20260505021749 69 15 1.0 2.0 0.00 0.00 0.00 71 1016.5
20260505021245 69 34 2.0 2.0 0.00 0.00 0.00 71 1016.8
20260505020741 69 157 2.0 3.0 0.00 0.00 0.00 70 1016.5
20260505020237 70 0 0.0 1.0 0.00 0.00 0.00 70 1016.3
20260505015734 69 341 0.0 2.0 0.00 0.00 0.00 69 1016.2
20260505015231 70 356 0.0 2.0 0.00 0.00 0.00 69 1016.2
20260505014728 70 350 0.0 1.0 0.00 0.00 0.00 69 1016.3
20260505014225 70 5 0.0 1.0 0.00 0.00 0.00 69 1016.3
20260505013722 70 4 0.0 1.0 0.00 0.00 0.00 68 1015.9
20260505013219 70 95 2.0 2.0 0.00 0.00 0.00 68 1016.0
20260505012717 70 337 0.0 4.0 0.00 0.00 0.00 67 1016.0
20260505012214 70 172 2.0 3.0 0.00 0.00 0.00 67 1015.9
20260505011710 71 73 1.0 3.0 0.00 0.00 0.00 67 1015.9
20260505011207 71 355 2.0 2.0 0.00 0.00 0.00 66 1015.9
20260505010702 71 41 1.0 3.0 0.00 0.00 0.00 66 1016.0
20260505010159 71 21 1.0 2.0 0.00 0.00 0.00 66 1015.8
20260505005655 71 359 0.0 1.0 0.00 0.00 0.00 65 1015.9
20260505005153 71 70 2.0 2.0 0.00 0.00 0.00 65 1015.8
20260505004649 71 4 1.0 2.0 0.00 0.00 0.00 64 1015.8
20260505004146 72 79 2.0 2.0 0.00 0.00 0.00 64 1015.7
20260505003643 72 15 1.0 3.0 0.00 0.00 0.00 64 1015.8
20260505003141 72 5 0.0 4.0 0.00 0.00 0.00 64 1015.7
20260505002637 72 117 2.0 4.0 0.00 0.00 0.00 63 1015.5
20260505002135 72 5 1.0 2.0 0.00 0.00 0.00 63 1015.5
20260505001632 73 15 1.0 2.0 0.00 0.00 0.00 62 1015.4
20260505001130 73 39 2.0 6.0 0.00 0.00 0.00 62 1015.3
20260505000627 73 4 2.0 4.0 0.00 0.00 0.00 62 1015.3
20260505000125 73 346 2.0 4.0 0.00 0.00 0.00 62 1015.3
20260504235620 73 57 1.0 2.0 0.00 0.00 0.00 61 1015.5
20260504235117 73 19 1.0 3.0 0.00 0.00 0.00 61 1015.4
20260504234614 74 356 1.0 4.0 0.00 0.00 0.00 60 1015.2
20260504234111 74 336 1.0 3.0 0.00 0.00 0.00 60 1014.7
20260504233607 74 21 0.0 4.0 0.00 0.00 0.00 59 1015.1
20260504233104 74 135 2.0 4.0 0.00 0.00 0.00 59 1015.1
20260504232601 75 14 3.0 7.0 0.00 0.00 0.00 58 1015.1
20260504232058 75 84 4.0 6.0 0.00 0.00 0.00 58 1015.1
20260504231555 75 128 3.0 4.0 0.00 0.00 0.00 57 1014.7
20260504231050 75 68 1.0 4.0 0.00 0.00 0.00 57 1015.1
20260504230547 75 58 3.0 4.0 0.00 0.00 0.00 57 1015.1
20260504230046 76 11 2.0 13.0 0.00 0.00 0.00 56 1014.9
20260504225543 76 75 3.0 7.0 0.00 0.00 0.00 55 1014.9
20260504225040 76 84 2.0 3.0 0.00 0.00 0.00 55 1015.0